Guymon, OK

9:50 PM CDT on August 18, 2017 (GMT -0500)
Guymon Municipal

Weather History for KGUY - November, 2012

Change the Weather History Date:

Friday, November 16, 2012

  Actual Average Record
Temperature  
Mean Temperature 44 °F 46 °F  
Max Temperature 61 °F 61 °F 87 °F (2016)
Min Temperature 27 °F 31 °F 14 °F (2005)
Degree Days  
Heating Degree Days 21 19  
Month to date heating degree days 197 261  
Since 1 July heating degree days 505 570  
Cooling Degree Days 0 0  
Month to date cooling degree days 0 0  
Year to date cooling degree days 1917 1481  
Moisture  
Dew Point 31 °F    
Average Humidity 57    
Maximum Humidity 75    
Minimum Humidity 39    
Precipitation  
Precipitation 0.00 in 0.02 in 0.26 in (2015)
Month to date precipitation T 0.32  
Year to date precipitation 10.79 18.45  
Snow  
Snow 0.00 in - - ()
Month to date snowfall 0.0  
Since 1 July snowfall 0.0  
Since 1 September snowfall 0.0  
Snow Depth 0.00 in    
Sea Level Pressure  
Sea Level Pressure 30.29 in    
Wind  
Wind Speed 9 mph (SSW)    
Max Wind Speed 20 mph    
Max Gust Speed 25 mph    
Visibility 10 miles    
Events      
T = Trace of Precipitation, MM = Missing Value Source: NWS Daily Summary

Daily Weather History Graph

Daily Weather History Graph

Search for Another Location

Airport or City:

Trip Planner

Search our weather history database for the weather conditions in past years. The results will help you decide how hot, cold, wet, or windy it might be!

Date:

Astronomy

Nov. 16, 2012 Rise Set
Actual Time 7:25 AM CST 5:35 PM CST
Civil Twilight 6:57 AM CST 6:03 PM CST
Nautical Twilight 6:26 AM CST 6:34 PM CST
Astronomical Twilight 5:55 AM CST 7:05 PM CST
Moon 10:20 AM CST (11/16) 8:38 PM CST (11/16)
Length of Visible Light 11h 05m
Length of Day
10h 10m
Waxing Crescent, 12% of the Moon is Illuminated
Nov 16
Waxing Crescent
Nov 20
First Quarter
Nov 28
Full
Dec 6
Last Quarter
Dec 13
New

Hourly Weather History & Observations

Time (CST) Temp. Windchill Dew Point Humidity Pressure Visibility Wind Dir Wind Speed Gust Speed Precip Events Conditions
12:53 AM 34.0 °F 31.0 °F 24.1 °F 67% 30.35 in 10.0 mi North 3.5 mph - N/A   Clear
1:53 AM 30.9 °F 27.5 °F 23.0 °F 72% 30.35 in 10.0 mi NNW 3.5 mph - N/A   Clear
2:53 AM 32.0 °F 25.6 °F 24.1 °F 73% 30.36 in 10.0 mi NNW 6.9 mph - N/A   Clear
3:53 AM 30.0 °F 23.2 °F 21.9 °F 72% 30.37 in 10.0 mi NW 6.9 mph - N/A   Clear
4:53 AM 30.9 °F 27.5 °F 23.0 °F 72% 30.35 in 10.0 mi WNW 3.5 mph - N/A   Clear
5:53 AM 28.0 °F 22.8 °F 21.0 °F 75% 30.38 in 10.0 mi West 4.6 mph - N/A   Clear
6:53 AM 28.0 °F - 21.9 °F 78% 30.37 in 10.0 mi Calm Calm - N/A   Clear
7:53 AM 27.0 °F 21.6 °F 19.9 °F 75% 30.40 in 10.0 mi West 4.6 mph - N/A   Clear
8:53 AM 35.1 °F 32.2 °F 24.1 °F 64% 30.39 in 10.0 mi WNW 3.5 mph - N/A   Clear
9:53 AM 42.1 °F - 27.0 °F 55% 30.38 in 10.0 mi Calm Calm - N/A   Clear
10:53 AM 48.0 °F - 32.0 °F 54% 30.36 in 10.0 mi South 4.6 mph - N/A   Clear
11:53 AM 54.0 °F - 36.0 °F 51% 30.32 in 10.0 mi South 11.5 mph - N/A   Clear
12:53 PM 57.0 °F - 37.9 °F 49% 30.28 in 10.0 mi South 13.8 mph 23.0 mph N/A   Clear
1:53 PM 59.0 °F - 36.0 °F 42% 30.25 in 10.0 mi South 16.1 mph 21.9 mph N/A   Clear
2:53 PM 60.1 °F - 36.0 °F 41% 30.21 in 10.0 mi South 16.1 mph 24.2 mph N/A   Clear
3:53 PM 61.0 °F - 37.0 °F 41% 30.19 in 10.0 mi South 15.0 mph 20.7 mph N/A   Clear
4:53 PM 60.1 °F - 37.9 °F 44% 30.18 in 10.0 mi South 10.4 mph 20.7 mph N/A   Clear
5:53 PM 55.0 °F - 39.0 °F 55% 30.19 in 10.0 mi SSE 10.4 mph - N/A   Clear
6:53 PM 52.0 °F - 37.9 °F 59% 30.21 in 10.0 mi SSE 10.4 mph - N/A   Clear
7:53 PM 50.0 °F - 37.9 °F 63% 30.22 in 10.0 mi South 12.7 mph - N/A   Clear
8:53 PM 48.9 °F - 37.9 °F 66% 30.20 in 10.0 mi South 13.8 mph - N/A   Clear
9:53 PM 46.0 °F 40.2 °F 37.0 °F 71% 30.20 in 10.0 mi South 12.7 mph - N/A   Clear
10:53 PM 46.9 °F - 37.0 °F 68% 30.18 in 10.0 mi South 15.0 mph - N/A   Clear
11:53 PM 46.9 °F - 37.0 °F 68% 30.16 in 10.0 mi South 13.8 mph - N/A   Clear